When you browse on this site, cookies collect data to enhance your experience and personalize the content and advertising you see.
Visit our Privacy Policy to learn more. By continuing to use the site, you agree to this use of cookies and data.
  • en Suisse
  • Liste des pays
  • À 7 jours
  • Température de l'eau
  • Carte satellitaire
  • Carte météo
  • Widgets météo
  • user-avatar
    Se connecter

    Météo par heure à Linz

    Ce jour, 25 Mai, Samedi

    Heure Température Précipitation Vent Pression Humidité
    00:00 +13°C° 0 mm 1 m/s 732 mmHg 87%
    01:00 +12°C° 0 mm 1 m/s 732 mmHg 88%
    02:00 +11°C° 0 mm 0 m/s 732 mmHg 88%
    03:00 +10°C° 0 mm 0 m/s 732 mmHg 89%
    04:00 +10°C° 0 mm 0 m/s 732 mmHg 89%
    05:00 +11°C° 0 mm 0 m/s 732 mmHg 85%
    06:00 +13°C° 0 mm 0 m/s 732 mmHg 81%
    07:00 +15°C° 0 mm 0 m/s 732 mmHg 77%
    08:00 +16°C° 0 mm 0 m/s 732 mmHg 72%
    09:00 +20°C° 0 mm 1 m/s 732 mmHg 68%
    10:00 +22°C° 0 mm 1 m/s 732 mmHg 64%
    11:00 +23°C° 0 mm 1 m/s 732 mmHg 60%
    12:00 +24°C° 0 mm 1 m/s 732 mmHg 57%
    13:00 +24°C° 0 mm 1 m/s 732 mmHg 54%
    14:00 +24°C° 0 mm 1 m/s 731 mmHg 53%
    15:00 +24°C° 0 mm 1 m/s 731 mmHg 52%
    16:00 +22°C° 0 mm 0 m/s 731 mmHg 51%
    17:00 +23°C° 0.1 mm 1 m/s 731 mmHg 60%
    18:00 +21°C° 0.1 mm 1 m/s 731 mmHg 70%
    19:00 +18°C° 0.1 mm 2 m/s 731 mmHg 80%
    20:00 +17°C° 0.1 mm 2 m/s 731 mmHg 82%
    21:00 +16°C° 0.1 mm 1 m/s 732 mmHg 85%
    22:00 +15°C° 0.1 mm 1 m/s 732 mmHg 87%
    23:00 +15°C° 0 mm 1 m/s 732 mmHg 89%

    Demain, 26 Mai, Dimanche

    Heure Température Précipitation Vent Pression Humidité
    00:00 +14°C° 0 mm 1 m/s 732 mmHg 91%
    01:00 +13°C° 0 mm 1 m/s 732 mmHg 93%
    02:00 +13°C° 0 mm 1 m/s 732 mmHg 94%
    03:00 +13°C° 0 mm 1 m/s 732 mmHg 95%
    04:00 +13°C° 0 mm 1 m/s 732 mmHg 96%
    05:00 +13°C° 0.1 mm 1 m/s 732 mmHg 94%
    06:00 +14°C° 0.1 mm 1 m/s 732 mmHg 93%
    07:00 +15°C° 0.1 mm 1 m/s 732 mmHg 92%
    08:00 +16°C° 0 mm 2 m/s 732 mmHg 89%
    09:00 +16°C° 0 mm 2 m/s 732 mmHg 86%
    10:00 +17°C° 0 mm 2 m/s 732 mmHg 83%
    11:00 +19°C° 0 mm 2 m/s 732 mmHg 75%
    12:00 +20°C° 0 mm 2 m/s 732 mmHg 68%
    13:00 +23°C° 0 mm 2 m/s 732 mmHg 61%
    14:00 +23°C° 0 mm 2 m/s 732 mmHg 60%
    15:00 +23°C° 0 mm 2 m/s 731 mmHg 60%
    16:00 +24°C° 0 mm 2 m/s 731 mmHg 59%
    17:00 +23°C° 0 mm 1 m/s 731 mmHg 65%
    18:00 +21°C° 0 mm 1 m/s 731 mmHg 70%
    19:00 +18°C° 0 mm 0 m/s 731 mmHg 76%
    20:00 +17°C° 0 mm 0 m/s 731 mmHg 79%
    21:00 +15°C° 0 mm 0 m/s 731 mmHg 82%
    22:00 +14°C° 0 mm 0 m/s 732 mmHg 86%
    23:00 +14°C° 0 mm 0 m/s 731 mmHg 87%

    Après-demain, 27 Mai, Lundi

    Heure Température Précipitation Vent Pression Humidité
    00:00 +13°C° 0 mm 0 m/s 731 mmHg 87%
    01:00 +14°C° 0 mm 1 m/s 731 mmHg 88%
    02:00 +14°C° 0 mm 1 m/s 731 mmHg 89%
    03:00 +13°C° 0 mm 1 m/s 731 mmHg 90%
    04:00 +13°C° 0 mm 1 m/s 730 mmHg 90%
    05:00 +13°C° 0 mm 0 m/s 730 mmHg 87%
    06:00 +15°C° 0 mm 0 m/s 731 mmHg 83%
    07:00 +16°C° 0 mm 0 m/s 731 mmHg 80%
    08:00 +17°C° 0 mm 0 m/s 731 mmHg 75%
    09:00 +21°C° 0 mm 1 m/s 731 mmHg 71%
    10:00 +22°C° 0 mm 1 m/s 731 mmHg 67%
    11:00 +23°C° 0.1 mm 1 m/s 730 mmHg 64%
    12:00 +24°C° 0.1 mm 1 m/s 730 mmHg 62%
    13:00 +23°C° 0.1 mm 0 m/s 730 mmHg 59%
    14:00 +24°C° 0.2 mm 1 m/s 729 mmHg 61%
    15:00 +24°C° 0.2 mm 1 m/s 729 mmHg 63%
    16:00 +24°C° 0.2 mm 1 m/s 728 mmHg 65%
    17:00 +23°C° 0.5 mm 1 m/s 728 mmHg 71%
    18:00 +22°C° 0.5 mm 1 m/s 728 mmHg 77%
    19:00 +20°C° 0.5 mm 1 m/s 728 mmHg 83%
    20:00 +20°C° 0.1 mm 1 m/s 728 mmHg 85%
    21:00 +19°C° 0.1 mm 1 m/s 728 mmHg 87%
    22:00 +18°C° 0.1 mm 1 m/s 728 mmHg 89%
    23:00 +15°C° 1.6 mm 0 m/s 727 mmHg 91%

    28 Mai, Mardi

    Heure Température Précipitation Vent Pression Humidité
    00:00 +15°C° 1.6 mm 0 m/s 727 mmHg 93%
    01:00 +15°C° 1.6 mm 0 m/s 727 mmHg 94%
    02:00 +15°C° 1.8 mm 0 m/s 726 mmHg 95%
    03:00 +16°C° 1.8 mm 1 m/s 726 mmHg 95%
    04:00 +16°C° 1.8 mm 1 m/s 726 mmHg 96%
    05:00 +16°C° 0.8 mm 1 m/s 726 mmHg 96%
    06:00 +16°C° 0.8 mm 1 m/s 726 mmHg 95%
    07:00 +16°C° 0.8 mm 2 m/s 726 mmHg 95%
    08:00 +16°C° 0.6 mm 2 m/s 726 mmHg 95%
    09:00 +16°C° 0.6 mm 2 m/s 725 mmHg 96%
    10:00 +15°C° 0.6 mm 2 m/s 725 mmHg 96%
    11:00 +14°C° 0.4 mm 3 m/s 725 mmHg 95%
    12:00 +14°C° 0.4 mm 3 m/s 725 mmHg 95%
    13:00 +14°C° 0.4 mm 3 m/s 725 mmHg 94%
    14:00 +14°C° 0.6 mm 4 m/s 726 mmHg 94%
    15:00 +13°C° 0.6 mm 5 m/s 726 mmHg 94%
    16:00 +13°C° 0.6 mm 5 m/s 726 mmHg 94%
    17:00 +12°C° 0.6 mm 5 m/s 727 mmHg 94%
    18:00 +12°C° 0.6 mm 4 m/s 727 mmHg 94%
    19:00 +12°C° 0.6 mm 4 m/s 727 mmHg 94%
    20:00 +11°C° 0.8 mm 4 m/s 728 mmHg 95%
    21:00 +11°C° 0.8 mm 4 m/s 728 mmHg 95%
    22:00 +11°C° 0.8 mm 4 m/s 729 mmHg 95%
    23:00 +11°C° 0.4 mm 3 m/s 729 mmHg 95%

    29 Mai, Mercredi

    Heure Température Précipitation Vent Pression Humidité
    00:00 +11°C° 0.4 mm 3 m/s 729 mmHg 96%
    01:00 +12°C° 0.4 mm 2 m/s 729 mmHg 96%
    02:00 +12°C° 0.4 mm 2 m/s 729 mmHg 96%
    03:00 +12°C° 0.4 mm 1 m/s 729 mmHg 96%
    04:00 +12°C° 0.4 mm 1 m/s 729 mmHg 96%
    05:00 +12°C° 0.9 mm 1 m/s 730 mmHg 96%
    06:00 +12°C° 0.9 mm 1 m/s 730 mmHg 96%
    07:00 +12°C° 0.9 mm 2 m/s 730 mmHg 96%
    08:00 +12°C° 1.8 mm 2 m/s 731 mmHg 96%
    09:00 +10°C° 1.8 mm 2 m/s 731 mmHg 96%
    10:00 +10°C° 1.8 mm 3 m/s 732 mmHg 95%
    11:00 +10°C° 1.3 mm 3 m/s 732 mmHg 95%
    12:00 +9°C° 1.3 mm 3 m/s 733 mmHg 95%
    13:00 +9°C° 1.3 mm 3 m/s 733 mmHg 95%
    14:00 +9°C° 0.8 mm 3 m/s 733 mmHg 95%
    15:00 +9°C° 0.8 mm 3 m/s 734 mmHg 95%
    16:00 +9°C° 0.8 mm 3 m/s 734 mmHg 95%
    17:00 +9°C° 0.5 mm 3 m/s 735 mmHg 95%
    18:00 +9°C° 0.5 mm 3 m/s 735 mmHg 96%
    19:00 +9°C° 0.5 mm 2 m/s 736 mmHg 96%
    20:00 +9°C° 0.4 mm 2 m/s 737 mmHg 96%
    21:00 +9°C° 0.4 mm 2 m/s 737 mmHg 97%
    22:00 +9°C° 0.4 mm 2 m/s 738 mmHg 97%
    23:00 +9°C° 0.3 mm 2 m/s 738 mmHg 97%

    30 Mai, Jeudi

    Heure Température Précipitation Vent Pression Humidité
    00:00 +9°C° 0.3 mm 2 m/s 738 mmHg 97%
    01:00 +10°C° 0.3 mm 1 m/s 738 mmHg 97%
    02:00 +10°C° 0.1 mm 1 m/s 738 mmHg 97%
    03:00 +9°C° 0.1 mm 1 m/s 738 mmHg 97%
    04:00 +9°C° 0.1 mm 1 m/s 738 mmHg 97%
    05:00 +10°C° 0 mm 1 m/s 738 mmHg 95%
    06:00 +9°C° 0 mm 0 m/s 738 mmHg 93%
    07:00 +10°C° 0 mm 0 m/s 738 mmHg 91%
    08:00 +11°C° 0 mm 0 m/s 738 mmHg 86%
    09:00 +12°C° 0 mm 0 m/s 738 mmHg 80%
    10:00 +14°C° 0 mm 0 m/s 738 mmHg 75%
    11:00 +16°C° 0 mm 1 m/s 737 mmHg 70%
    12:00 +18°C° 0 mm 1 m/s 737 mmHg 66%
    13:00 +19°C° 0 mm 1 m/s 736 mmHg 62%
    14:00 +19°C° 0.1 mm 1 m/s 736 mmHg 62%
    15:00 +19°C° 0.1 mm 1 m/s 736 mmHg 62%
    16:00 +17°C° 0.1 mm 0 m/s 735 mmHg 62%
    17:00 +16°C° 0 mm 0 m/s 735 mmHg 68%
    18:00 +15°C° 0 mm 0 m/s 735 mmHg 74%
    19:00 +14°C° 0 mm 0 m/s 735 mmHg 80%
    20:00 +14°C° 0 mm 1 m/s 735 mmHg 83%
    21:00 +12°C° 0 mm 1 m/s 735 mmHg 86%
    22:00 +11°C° 0 mm 1 m/s 735 mmHg 89%
    23:00 +10°C° 0 mm 1 m/s 735 mmHg 90%
    Voir plus